This demonstration page uses our WeatherBlox Daily Observations layout. Learn more.

Left ArrowRight Arrow

39.29038, -76.61219

Hourly Observations for January 8, 2023

Temp ( °F °C ) Dew Point ( °F °C ) Humidity (%) Winds ( mph kmh ) Pressure ( in mb ) Visibility ( mi km ) Precip ( " mm )
12:54 am 00:54 undefined 39 3.9 26 -3.3 59 59 undefined N/A 30.33 1027 N/A 0.00 0.00
1:54 am 01:54 undefined 38 3.3 26 -3.3 62 62 undefined N/A 30.33 1027 N/A 0.00 0.00
2:54 am 02:54 undefined 37 2.8 26 -3.3 64 64 undefined N/A 30.35 1028 N/A 0.00 0.00
3:54 am 03:54 undefined 37 2.8 26 -3.3 64 64 undefined N/A 30.35 1028 N/A 0.00 0.00
4:54 am 04:54 undefined 36 2.2 25 -3.9 64 64 undefined N/A 30.35 1028 N/A 0.00 0.00
5:54 am 05:54 undefined 36 2.2 25 -3.9 64 64 undefined N/A 30.35 1028 N/A 0.00 0.00
6:54 am 06:54 undefined 37 2.8 25 -3.9 61 61 undefined N/A 30.34 1028 N/A 0.00 0.00
7:54 am 07:54 undefined 34 1.1 25 -3.9 69 69 undefined N/A 30.36 1028 N/A 0.00 0.00
8:54 am 08:54 undefined 36 2.2 26 -3.3 67 67 undefined N/A 30.37 1028 N/A 0.00 0.00
9:54 am 09:54 undefined 39 3.9 26 -3.3 59 59 undefined N/A 30.37 1028 N/A 0.00 0.00
10:54 am 10:54 undefined 42 5.6 26 -3.3 53 53 undefined N/A 30.36 1028 N/A 0.00 0.00
11:54 am 11:54 undefined 43 6.1 25 -3.9 49 49 undefined N/A 30.33 1027 N/A 0.00 0.00
12:54 pm 12:54 undefined 43 6.1 26 -3.3 51 51 undefined N/A 30.29 1026 N/A 0.00 0.00
1:54 pm 13:54 undefined 43 6.1 27 -2.8 53 53 undefined N/A 30.28 1025 N/A 0.00 0.00
2:54 pm 14:54 undefined 42 5.6 26 -3.3 53 53 undefined N/A 30.27 1025 N/A 0.00 0.00
3:54 pm 15:54 undefined 42 5.6 27 -2.8 55 55 undefined N/A 30.24 1024 N/A 0.00 0.00
4:54 pm 16:54 undefined 42 5.6 26 -3.3 53 53 undefined N/A 30.21 1023 N/A 0.00 0.00
5:54 pm 17:54 undefined 42 5.6 27 -2.8 55 55 undefined N/A 30.20 1023 N/A 0.00 0.00
6:54 pm 18:54 undefined 42 5.6 28 -2.2 57 57 undefined N/A 30.21 1023 N/A 0.00 0.00
7:54 pm 19:54 undefined 42 5.6 29 -1.7 59 59 undefined N/A 30.18 1022 N/A 0.00 0.00
8:54 pm 20:54 undefined 42 5.6 29 -1.7 59 59 undefined N/A 30.16 1021 N/A 0.00 0.00
9:54 pm 21:54 undefined 42 5.6 30 -1.1 62 62 undefined N/A 30.15 1021 N/A 0.00 0.00
10:54 pm 22:54 undefined 40 4.4 34 1.1 79 79 undefined N/A 30.12 1020 N/A 0.00 0.00
11:54 pm 23:54 undefined 39 3.9 36 2.2 89 89 undefined N/A 30.09 1019 N/A 0.00 0.00

Powered by AerisWeather